BCS3164 EKCH-ENBR

Flight info

Callsign BCS3164
Flight time N/A
Altitude 36000
Route GOLGA DCT RETKA DCT PESUR
Aircraft B73F/M-SDE2E3FGHIRWXY/LB1

Departure

Time 2026-04-26 02:44
Airport Copenhagen Kastrup Airport (EKCH)

Arrival

Time N/A
Airport Bergen Airport, Flesland (ENBR)
Time Latitude Longitude Altitude Speed Heading
2026-04-26 02:29 55.62897 12.63523 11 ft 0 kts 41°
2026-04-26 02:30 55.62897 12.63522 16 ft 0 kts 41°
2026-04-26 02:38 55.62893 12.63515 16 ft 2 kts 40°
2026-04-26 02:39 55.62877 12.63494 16 ft 3 kts 28°
2026-04-26 02:39 55.62856 12.63485 16 ft 3 kts 317°
2026-04-26 02:39 55.62853 12.63489 16 ft 1 kts 269°
2026-04-26 02:39 55.62853 12.63493 16 ft 1 kts 266°
2026-04-26 02:42 55.62852 12.63467 18 ft 6 kts 266°
2026-04-26 02:42 55.62816 12.63378 18 ft 11 kts 215°
2026-04-26 02:42 55.62756 12.63291 15 ft 11 kts 250°
2026-04-26 02:42 55.62785 12.63164 17 ft 9 kts 303°
2026-04-26 02:43 55.62736 12.63037 15 ft 12 kts 128°
2026-04-26 02:43 55.62688 12.63171 16 ft 15 kts 122°
2026-04-26 02:43 55.62604 12.63401 16 ft 44 kts 123°
2026-04-26 02:44 55.62259 12.64335 15 ft 134 kts 123°
2026-04-26 02:44 55.61624 12.66050 285 ft 183 kts 122°
2026-04-26 02:44 55.60923 12.67906 1467 ft 181 kts 120°
2026-04-26 02:44 55.60220 12.69738 2537 ft 184 kts 117°
2026-04-26 02:45 55.59502 12.71837 3004 ft 216 kts 107°
2026-04-26 02:45 55.59337 12.74487 3357 ft 227 kts 70°
2026-04-26 02:45 55.60112 12.76805 4150 ft 218 kts 35°
2026-04-26 02:45 55.61513 12.77892 4736 ft 230 kts
2026-04-26 02:46 55.63137 12.78239 5611 ft 239 kts
2026-04-26 02:46 55.64795 12.78487 6763 ft 241 kts
2026-04-26 02:46 55.66484 12.78739 7787 ft 246 kts
2026-04-26 02:46 55.68207 12.79012 8782 ft 250 kts
2026-04-26 02:47 55.69955 12.79307 9803 ft 253 kts
2026-04-26 02:47 55.71721 12.79616 10771 ft 259 kts
2026-04-26 02:47 55.73601 12.79947 11121 ft 286 kts
2026-04-26 02:47 55.75673 12.80321 11345 ft 313 kts
2026-04-26 02:48 55.77897 12.80731 11922 ft 325 kts
2026-04-26 02:48 55.80126 12.81053 12851 ft 324 kts 355°
2026-04-26 02:48 55.82303 12.80263 13809 ft 319 kts 338°
2026-04-26 02:48 55.84262 12.78428 14791 ft 319 kts 327°
2026-04-26 02:49 55.85919 12.75776 15695 ft 324 kts 314°
2026-04-26 02:49 55.87234 12.72475 16554 ft 329 kts 309°
2026-04-26 02:49 55.88451 12.69002 17361 ft 331 kts 308°
2026-04-26 02:49 55.89670 12.65519 18165 ft 332 kts 309°
2026-04-26 02:50 55.90900 12.62034 18912 ft 334 kts 308°
2026-04-26 02:50 55.91894 12.58184 19485 ft 349 kts 300°
2026-04-26 02:50 55.92722 12.54078 20103 ft 353 kts 300°
2026-04-26 02:50 55.93543 12.49922 20720 ft 356 kts 300°
2026-04-26 02:51 55.94372 12.45740 21348 ft 358 kts 300°
2026-04-26 02:51 55.95214 12.41525 21903 ft 362 kts 300°
2026-04-26 02:51 55.96067 12.37280 22420 ft 365 kts 300°
2026-04-26 02:51 55.96929 12.32997 22947 ft 367 kts 301°
2026-04-26 02:52 55.97796 12.28690 23458 ft 370 kts 301°
2026-04-26 02:52 55.98670 12.24347 23916 ft 373 kts 301°
2026-04-26 02:52 55.99538 12.20022 24388 ft 376 kts 301°
2026-04-26 02:52 56.00423 12.15610 24831 ft 378 kts 300°
2026-04-26 02:53 56.01312 12.11163 25248 ft 381 kts 300°
2026-04-26 02:53 56.02206 12.06694 25721 ft 381 kts 301°
2026-04-26 02:53 56.03424 12.02597 26101 ft 368 kts 313°
2026-04-26 02:53 56.05047 11.99106 26476 ft 363 kts 321°
2026-04-26 02:54 56.06983 11.96249 26811 ft 360 kts 330°
2026-04-26 02:54 56.09148 11.93990 27169 ft 361 kts 333°
2026-04-26 02:54 56.11349 11.91798 27526 ft 362 kts 333°
2026-04-26 02:54 56.13531 11.89633 27856 ft 364 kts 333°
2026-04-26 02:55 56.15751 11.87414 28146 ft 366 kts 333°
2026-04-26 02:55 56.17982 11.85166 28479 ft 367 kts 332°
2026-04-26 02:55 56.20201 11.82914 28882 ft 365 kts 332°
2026-04-26 02:55 56.22410 11.80661 29280 ft 365 kts 332°
2026-04-26 02:56 56.24613 11.78410 29703 ft 363 kts 332°
2026-04-26 02:56 56.26801 11.76170 30137 ft 361 kts 332°
2026-04-26 02:56 56.28983 11.73935 30540 ft 360 kts 332°
2026-04-26 02:56 56.31160 11.71703 30884 ft 360 kts 332°
2026-04-26 02:57 56.33338 11.69450 31224 ft 361 kts 330°
2026-04-26 02:57 56.35433 11.66953 31555 ft 362 kts 328°
2026-04-26 02:57 56.37487 11.64322 31897 ft 362 kts 327°
2026-04-26 02:57 56.39523 11.61655 32171 ft 363 kts 327°
2026-04-26 02:58 56.43629 11.56262 32174 ft 363 kts 327°
2026-04-26 02:58 56.47697 11.50943 32187 ft 362 kts 327°
2026-04-26 02:59 56.51799 11.45599 32195 ft 362 kts 327°
2026-04-26 02:59 56.55879 11.40282 32203 ft 363 kts 327°
2026-04-26 03:00 56.59985 11.34917 32198 ft 364 kts 327°
2026-04-26 03:00 56.64101 11.29527 32200 ft 365 kts 327°
2026-04-26 03:01 56.68224 11.24112 32209 ft 366 kts 327°
2026-04-26 03:01 56.72354 11.18674 32203 ft 366 kts 327°
2026-04-26 03:02 56.76485 11.13221 32205 ft 367 kts 327°
2026-04-26 03:02 56.80624 11.07741 32211 ft 367 kts 327°
2026-04-26 03:03 56.84765 11.02243 32212 ft 368 kts 326°
2026-04-26 03:03 56.88882 10.96760 32204 ft 368 kts 326°
2026-04-26 03:04 56.93030 10.91220 32200 ft 369 kts 326°
2026-04-26 03:04 56.97177 10.85668 32202 ft 369 kts 326°
2026-04-26 03:05 57.01315 10.80109 32197 ft 369 kts 326°
2026-04-26 03:05 57.05466 10.74521 32203 ft 370 kts 324°
2026-04-26 03:06 57.09652 10.68870 32216 ft 379 kts 324°
2026-04-26 03:06 57.13922 10.63086 32194 ft 380 kts 324°
2026-04-26 03:07 57.18141 10.57355 32212 ft 379 kts 324°
2026-04-26 03:07 57.22377 10.51584 32214 ft 378 kts 323°
2026-04-26 03:08 57.26605 10.45806 32216 ft 378 kts 323°
2026-04-26 03:08 57.30839 10.40005 32207 ft 378 kts 323°
2026-04-26 03:09 57.35059 10.34205 32216 ft 377 kts 323°
2026-04-26 03:09 57.39278 10.28392 32214 ft 377 kts 323°
2026-04-26 03:10 57.43486 10.22574 32217 ft 377 kts 323°
2026-04-26 03:10 57.47668 10.16772 32207 ft 378 kts 323°
2026-04-26 03:11 57.51878 10.10919 32210 ft 378 kts 323°
2026-04-26 03:11 57.56083 10.05056 32215 ft 378 kts 323°
2026-04-26 03:12 57.60288 9.99175 32210 ft 377 kts 323°
2026-04-26 03:12 57.64487 9.93283 32215 ft 378 kts 323°
2026-04-26 03:13 57.68664 9.87405 32213 ft 378 kts 323°
2026-04-26 03:13 57.72873 9.81464 32220 ft 378 kts 323°
2026-04-26 03:14 57.77077 9.75516 32219 ft 379 kts 322°
2026-04-26 03:14 57.81252 9.69587 32219 ft 378 kts 322°
2026-04-26 03:15 57.85443 9.63620 32220 ft 377 kts 322°
2026-04-26 03:15 57.89618 9.57657 32220 ft 376 kts 322°
2026-04-26 03:16 57.93783 9.51691 32223 ft 376 kts 322°
2026-04-26 03:16 57.97939 9.45720 32220 ft 376 kts 322°
2026-04-26 03:17 58.02261 9.40187 32228 ft 375 kts 327°
2026-04-26 03:17 58.06686 9.35028 32219 ft 375 kts 327°
2026-04-26 03:18 58.11121 9.29853 32227 ft 374 kts 327°
2026-04-26 03:18 58.15547 9.24643 32229 ft 374 kts 326°
2026-04-26 03:19 58.19940 9.19439 32231 ft 375 kts 326°
2026-04-26 03:19 58.24361 9.14182 32228 ft 375 kts 326°
2026-04-26 03:20 58.28788 9.08898 32232 ft 376 kts 326°
2026-04-26 03:20 58.33225 9.03588 32230 ft 377 kts 326°
2026-04-26 03:21 58.37669 8.98254 32231 ft 378 kts 326°
2026-04-26 03:21 58.42120 8.92896 32230 ft 378 kts 326°
2026-04-26 03:22 58.46544 8.87554 32231 ft 379 kts 326°
2026-04-26 03:22 58.51006 8.82149 32229 ft 380 kts 326°
2026-04-26 03:23 58.55468 8.76727 32229 ft 380 kts 326°
2026-04-26 03:23 58.59934 8.71285 32234 ft 380 kts 326°
2026-04-26 03:24 58.64401 8.65824 32228 ft 380 kts 326°
2026-04-26 03:24 58.68865 8.60349 32232 ft 380 kts 326°
2026-04-26 03:25 58.73295 8.54900 32234 ft 380 kts 326°
2026-04-26 03:25 58.77754 8.49398 32236 ft 381 kts 326°
2026-04-26 03:26 58.82215 8.43879 32220 ft 381 kts 326°
2026-04-26 03:26 58.86672 8.38347 32230 ft 380 kts 326°
2026-04-26 03:27 58.90364 8.33749 32228 ft 379 kts 325°
2026-04-26 03:27 58.94797 8.28215 32229 ft 379 kts 325°
2026-04-26 03:28 58.99227 8.22665 32227 ft 379 kts 325°
2026-04-26 03:28 59.03654 8.17101 32238 ft 378 kts 326°
2026-04-26 03:29 59.08037 8.11576 32234 ft 377 kts 325°
2026-04-26 03:29 59.12439 8.06011 32219 ft 377 kts 325°
2026-04-26 03:30 59.16831 8.00440 32243 ft 376 kts 325°
2026-04-26 03:30 59.21210 7.94871 32248 ft 376 kts 324°
2026-04-26 03:31 59.25617 7.89247 32248 ft 379 kts 324°
2026-04-26 03:31 59.30042 7.83585 32231 ft 380 kts 324°
2026-04-26 03:32 59.34443 7.77936 32240 ft 380 kts 324°